weather.gov     
National Weather Service

Terminal Aerodrome Forecast
NWS Homepage
This page is being discontinued on March 12, 2014.
The same data is available at this site. Please update your bookmarks.
Thank you, and we apologize for the inconvenience.
Please send an email to SR-SRH.Webmaster@noaa.gov with any concerns.


Current Version
Previous Version:    01  02  03  04  05  06  07  08  09  10  11  12  13  14  15  16  17  18  19  20  21  22  23  24  25  26  27  28  29  30  
   31  32  33  34  35  36  37  38  39  40  41  
[Printable]
917
FTUS45 KABQ 300500
TAFLVS
TAF
KLVS 300526Z 3006/3106 06011KT P6SM SCT015 SCT035
      TEMPO 3006/3010 BKN025
     FM301100 33008KT P6SM SCT035 SCT090
     FM302200 07012G20KT P6SM VCTS SCT050CB BKN130
     FM310300 02011KT P6SM VCSH BKN035 BKN060=


U.S. Dept. of Commerce
NOAA National Weather Service
1325 East West Highway
Silver Spring, MD 20910
E-mail: w-nws.webmaster@noaa.gov
Page last modified: May 16, 2007
NATIONAL WEATHER SERVICE: for Safety, for Work, for Fun - FOR LIFE